Wind_Gust
0 0 0 0 0 0 0 0 0 0 0 0 0 0 0 0 0 0 0 0 0 0 0 0 0 0 0 0 0 0 0 0 0 0 0 0 0 0 0 0 0 0 0 0 0 0 0 0 0 0 0 0 0 0 0 0 0 0 0 0 0 0 0 0 0 0 0 0 0 0 0 0 0 0 0 0 0 0 0 0 0 0 0 0 0
0 0 0 0 0 0 0 0 0 0 0 0 0 0 0 0 0 0 0 0 0 0 0 0 0 0 0 0 0 0 0 0 0 0 0 0 0 0 0 0 0 0 0 0 0 0 0 0 0 0 0 0 0 0 0 0 0 0 0 0 0 0 0 0 0 0 0 0 0 0 0 0 0 0 0 0 0 0 0 0 0 0 0 0 0
0 0 0 0 0 0 0 0 0 0 0 0 0 0 0 0 0 0 0 0 0 0 0 0 0 0 0 0 0 0 0 0 0 0 0 0 0 0 0 0 0 0 0 0 0 0 0 0 0 0 0 0 0 0 0 0 0 0 0 0 0 0 0 0 0 0 0 0 0 0 0 0 0 0 0 0 0 0 0 0 0 0 0 0 0
0 0 0 0 0 0 0 0 0 0 0 0 0 0 0 0 0 0 0 0 0 0 0 0 0 0 0 0 0 0 0 0 0 0 0 0 0 0 0 0 0 0 0 0 0 0 0 0 0 0 0 0 0 0 0 0 0 0 0 0 0 0 0 0 0 0 0 0 0 0 0 0 0 0 0 0 0 0 0 0 0 0 0 0 0
0 0 0 0 0 0 0 0 0 0 0 0 0 0 0 0 0 0 0 0 0 0 0 0 0 0 0 0 0 0 0 0 0 0 0 0 0 0 0 0 0 0 0 0 0 0 0 0 0 0 0 0 0 0 0 0 0 0 0 0 0 0 0 0 0 0 0 0 0 0 0 0 0 0 0 0 0 0 0 0 0 0 0 0 0
0 0 0 0 0 0 0 0 0 0 0 0 0 0 0 0 0 0 0 0 0 0 0 0 0 0 0 0 0 0 0 0 0 0 0 0 0 0 0 0 0 0 0 0 0 0 0 0 0 0 0 0 0 0 0 0 0 0 0 0 0 0 0 0 0 0 0 0 0 0 0 0 0 0 0 0 0 0 0 0 0 0 0 0 0
0 0 0 0 0 0 0 0 0 0 0 0 0 0 0 0 0 0 0 0 0 0 0 0 0 0 0 0 0 0 0 0 0 0 0 0 0 0 0 0 0 0 0 0 0 0 0 0 0 0 0 0 0 0 0 0 0 0 0 0 0 0 0 0 0 0 0 0 0 0 0 0 0 0 0 0 0 0 0 0 0 0 0 0 0
0 0 0 0 0 0 0 0 0 0 0 0 0 0 0 0 0 0 0 0 0 0 0 0 0 0 0 0 0 0 0 0 0 0 0 0 0 0 0 0 0 0 0 0 0 0 0 0 0 0 0 0 0 0 0 0 0 0 0 0 0 0 0 0 0 0 0 0 0 0 0 0 0 0 0 0 0 0 0 0 0 0 0 0 0
0 0 0 0 0 0 0 0 0 0 0 0 0 0 0 0 0 0 0 0 0 0 0 0 0 0 0 0 0 0 0 0 0 0 0 0 0 0 0 0 0 0 0 0 0 0 0 0 0 0 0 0 0 0 0 0 0 0 0 0 0 0 0 0 0 0 0 0 0 0 0 0 0 0 0 0 0 0 0 0 0 0 0 0 0
0 0 0 0 0 0 0 0 0 0 0 0 0 0 0 0 0 0 0 0 0 0 0 0 0 0 0 0 0 0 0 0 0 0 0 0 0 0 0 0 0 0 0 0 0 0 0 0 0 0 0 0 0 0 0 0 0 0 0 0 0 0 0 0 0 0 0 0 0 0 0 0 0 0 0 0 0 0 0 0 0 0 0 0 0
0 0 0 0 0 0 0 0 0 0 0 0 0 0 0 0 0 0 0 0 0 0 0 0 0 0 0 0 0 0 0 0 0 0 0 0 0 0 0 0 0 0 0 0 0 0 0 0 0 0 0 0 0 0 0 0 0 0 0 0 0 0 0 0 0 0 0 0 0 0 0 0 0 0 0 0 0 0 0 0 0 0 0 0 0
0 0 0 0 0 0 0 0 0 0 0 0 0 0 0 0 0 0 0 0 0 0 0 0 0 0 0 0 0 0 0 0 0 0 0 0 0 0 0 0 0 0 0 0 0 0 0 0 0 0 0 0 0 0 0 0 0 0 0 0 0 0 0 0 0 0 0 0 0 0 0 0 0 0 0 0 0 0 0 0 0 0 0 0 0
0 0 0 0 0 0 0 0 0 0 0 0 0 0 0 0 0 0 0 0 0 0 0 0 0 0 0 0 0 0 0 0 0 0 0 0 0 0 0 0 0 0 0 0 0 0 0 0 0 0 0 0 0 0 0 0 0 0 0 0 0 0 0 0 0 0 0 0 0 0 0 0 0 0 0 0 0 0 0 0 0 0 0 0 0
0 0 0 0 0 0 0 0 0 0 0 0 0 0 0 0 0 0 0 0 0 0 0 0 0 0 0 0 0 0 0 0 0 0 0 0 0 0 0 0 0 0 0 0 0 0 0 0 0 0 0 0 0 0 0 0 0 0 0 0 0 0 0 0 0 0 0 0 0 0 0 0 0 0 0 0 0 0 0 0 0 0 0 0 0
0 0 0 0 0 0 0 0 0 0 0 0 0 0 0 0 0 0 0 0 0 0 0 0 0 0 0 0 0 0 0 0 0 0 0 0 0 0 0 0 0 0 0 0 0 0 0 0 0 0 0 0 0 0 0 0 0 0 0 0 0 0 0 0 0 0 0 0 0 0 0 0 0 0 0 0 0 0 0 0 0 0 0 0 0
0 0 0 0 0 0 0 0 0 0 0 0 0 0 0 0 0 0 0 0 0 0 0 0 0 0 0 0 0 0 0 0 0 0 0 0 0 0 0 0 0 0 0 0 0 0 0 0 0 0 0 0 0 0 0 0 0 0 0 0 0 0 0 0 0 0 0 0 0 0 0 0 0 0 0 0 0 0 0 0 0 0 0 0 0
0 0 0 0 0 0 0 0 0 0 0 0 0 0 0 0 0 0 0 0 0 0 0 0 0 0 0 0 0 0 0 0 0 0 0 0 0 0 0 0 0 0 0 0 0 0 0 0 0 0 0 0 0 0 0 0 0 0 0 0 0 0 0 0 0 0 0 0 0 0 0 0 0 0 0 0 0 0 0 0 0 0 0 0 0
0 0 0 0 0 0 0 0 0 0 0 0 0 0 0 0 0 0 0 0 0 0 0 0 0 0 0 0 0 0 0 0 0 0 0 0 0 0 0 0 0 0 0 0 0 0 0 0 0 0 0 0 0 0 0 0 0 0 0 0 0 0 0 0 0 0 0 0 0 0 0 0 0 0 0 0 0 0 0 0 0 0 0 0 0
0 0 0 0 0 0 0 0 0 0 0 0 0 0 0 0 0 0 0 0 0 0 0 0 0 0 0 0 0 0 0 0 0 0 0 0 0 0 0 0 0 0 0 0 0 0 0 0 0 0 0 0 0 0 0 0 0 0 0 0 0 0 0 0 0 0 0 0 0 0 0 0 0 0 0 0 0 0 0 0 0 0 0 0 0
0 0 0 0 0 0 0 0 0 0 0 0 0 0 0 0 0 0 0 0 0 0 0 0 0 0 0 0 0 0 0 0 0 0 0 0 0 0 0 0 0 0 0 0 0 0 0 0 0 0 0 0 0 0 0 0 0 0 0 0 0 0 0 0 0 0 0 0 0 0 0 0 0 0 0 0 0 0 0 0 0 0 0 0 0
0 0 0 0 0 0 0 0 0 0 0 0 0 0 0 0 0 0 0 0 0 0 0 0 0 0 0 0 0 0 0 0 0 0 0 0 0 0 0 0 0 0 0 0 0 0 0 0 0 0 0 0 0 0 0 0 0 0 0 0 0 0 0 0 0 0 0 0 0 0 0 0 0 0 0 0 0 0 0 0 0 0 0 0 0
0 0 0 0 0 0 0 0 0 0 0 0 0 0 0 0 0 0 0 0 0 0 0 0 0 0 0 0 0 0 0 0 0 0 0 0 0 0 0 0 0 0 0 0 0 0 0 0 0 0 0 0 0 0 0 0 0 0 0 0 0 0 0 0 0 0 0 0 0 0 0 0 0 0 0 0 0 0 0 0 0 0 0 0 0
0 0 0 0 0 0 0 0 0 0 0 0 0 0 0 0 0 0 0 0 0 0 0 0 0 0 0 0 0 0 0 0 0 0 0 0 0 0 0 0 0 0 0 0 0 0 0 0 0 0 0 0 0 0 0 0 0 0 0 0 0 0 0 0 0 0 0 0 0 0 0 0 0 0 0 0 0 0 0 0 0 0 0 0 0
0 0 0 0 0 0 0 0 0 0 0 0 0 0 0 0 0 0 0 0 0 0 0 0 0 0 0 0 0 0 0 0 0 0 0 0 0 0 0 0 0 0 0 0 0 0 0 0 0 0 0 0 0 0 0 0 0 0 0 0 0 0 0 0 0 0 0 0 0 0 0 0 0 0 0 0 0 0 0 0 0 0 0 0 0
0 0 0 0 0 0 0 0 0 0 0 0 0 0 0 0 0 0 0 0 0 0 0 0 0 0 0 0 0 0 0 0 0 0 0 0 0 0 0 0 0 0 0 0 0 0 0 0 0 0 0 0 0 0 0 0 0 0 0 0 0 0 0 0 0 0 0 0 0 0 0 0 0 0 0 0 0 0 0 0 0 0 0 0 0
0 0 0 0 0 0 0 0 0 0 0 0 0 0 0 0 0 0 0 0 0 0 0 0 0 0 0 0 0 0 0 0 0 0 0 0 0 0 0 0 0 0 0 0 0 0 0 0 0 0 0 0 0 0 0 0 0 0 0 0 0 0 0 0 0 0 0 0 0 0 0 0 0 0 0 0 0 0 0 0 0 0 0 0 0
0 0 0 0 0 0 0 0 0 0 0 0 0 0 0 0 0 0 0 0 0 0 0 0 0 0 0 0 0 0 0 0 0 0 0 0 0 0 0 0 0 0 0 0 0 0 0 0 0 0 0 0 0 0 0 0 0 0 0 0 0 0 0 0 0 0 0 0 0 0 0 0 0 0 0 0 0 0 0 0 0 0 0 0 0
0 0 0 0 0 0 0 0 0 0 0 0 0 0 0 0 0 0 0 0 0 0 0 0 0 0 0 0 0 0 0 0 0 0 0 0 0 0 0 0 0 0 0 0 0 0 0 0 0 0 0 0 0 0 0 0 0 0 0 0 0 0 0 0 0 0 0 0 0 0 0 0 0 0 0 0 0 0 0 0 0 0 0 0 0
0 0 0 0 0 0 0 0 0 0 0 0 0 0 0 0 0 0 0 0 0 0 0 0 0 0 0 0 0 0 0 0 0 0 0 0 0 0 0 0 0 0 0 0 0 0 0 0 0 0 0 0 0 0 0 0 0 0 0 0 0 0 0 0 0 0 0 0 0 0 0 0 0 0 0 0 0 0 0 0 0 0 0 0 0
0 0 0 0 0 0 0 0 0 0 0 0 0 0 0 0 0 0 0 0 0 0 0 0 0 0 0 0 0 0 0 0 0 0 0 0 0 0 0 0 0 0 0 0 0 0 0 0 0 0 0 0 0 0 0 0 0 0 0 0 0 0 0 0 0 0 0 0 0 0 0 0 0 0 0 0 0 0 0 0 0 0 0 0 0
0 0 0 0 0 0 0 0 0 0 0 0 0 0 0 0 0 0 0 0 0 0 0 0 0 0 0 0 0 0 0 0 0 0 0 0 0 0 0 0 0 0 0 0 0 0 0 0 0 0 0 0 0 0 0 0 0 0 0 0 0 0 0 0 0 0 0 0 0 0 0 0 0 0 0 0 0 0 0 0 0 0 0 0 0
0 0 0 0 0 0 0 0 0 0 0 0 0 0 0 0 0 0 0 0 0 0 0 0 0 0 0 0 0 0 0 0 0 0 0 0 0 0 0 0 0 0 0 0 0 0 0 0 0 0 0 0 0 0 0 0 0 0 0 0 0 0 0 0 0 0 0 0 0 0 0 0 0 0 0 0 0 0 0 0 0 0 0 0 0
0 0 0 0 0 0 0 0 0 0 0 0 0 0 0 0 0 0 0 0 0 0 0 0 0 0 0 0 0 0 0 0 0 0 0 0 0 0 0 0 0 0 0 0 0 0 0 0 0 0 0 0 0 0 0 0 0 0 0 0 0 0 0 0 0 0 0 0 0 0 0 0 0 0 0 0 0 0 0 0 0 0 0 0 0
0 0 0 0 0 0 0 0 0 0 0 0 0 0 0 0 0 0 0 0 0 0 0 0 0 0 0 0 0 0 0 0 0 0 0 0 0 0 0 0 0 0 0 0 0 0 0 0 0 0 0 0 0 0 0 0 0 0 0 0 0 0 0 0 0 0 0 0 0 0 0 0 0 0 0 0 0 0 0 0 0 0 0 0 0
0 0 0 0 0 0 0 0 0 0 0 0 0 0 0 0 0 0 0 0 0 0 0 0 0 0 0 0 0 0 0 0 0 0 0 0 0 0 0 0 0 0 0 0 0 0 0 0 0 0 0 0 0 0 0 0 0 0 0 0 0 0 0 0 0 0 0 0 0 0 0 0 0 0 0 0 0 0 0 0 0 0 0 0 0
0 0 0 0 0 0 0 0 0 0 0 0 0 0 0 0 0 0 0 0 0 0 0 0 0 0 0 0 0 0 0 0 0 0 0 0 0 0 0 0 0 0 0 0 0 0 0 0 0 0 0 0 0 0 0 0 0 0 0 0 0 0 0 0 0 0 0 0 0 0 0 0 0 0 0 0 0 0 0 0 0 0 0 0 0
0 0 0 0 0 0 0 0 0 0 0 0 0 0 0 0 0 0 0 0 0 0 0 0 0 0 0 0 0 0 0 0 0 0 0 0 0 0 0 0 0 0 0 0 0 0 0 0 0 0 0 0 0 0 0 0 0 0 0 0 0 0 0 0 0 0 0 0 0 0 0 0 0 0 0 0 0 0 0 0 0 0 0 0 0
0 0 0 0 0 0 0 0 0 0 0 0 0 0 0 0 0 0 0 0 0 0 0 0 0 0 0 0 0 0 0 0 0 0 0 0 0 0 0 0 0 0 0 0 0 0 0 0 0 0 0 0 0 0 0 0 0 0 0 0 0 0 0 0 0 0 0 0 0 0 0 0 0 0 0 0 0 0 0 0 0 0 0 0 0
0 0 0 0 0 0 0 0 0 0 0 0 0 0 0 0 0 0 0 0 0 0 0 0 0 0 0 0 0 0 0 0 0 0 0 0 0 0 0 0 0 0 0 0 0 0 0 0 0 0 0 0 0 0 0 0 0 0 0 0 0 0 0 0 0 0 0 0 0 0 0 0 0 0 0 0 0 0 0 0 0 0 0 0 0
0 0 0 0 0 0 0 0 0 0 0 0 0 0 0 0 0 0 0 0 0 0 0 0 0 0 0 0 0 0 0 0 0 0 0 0 0 0 0 0 0 0 0 0 0 0 0 0 0 0 0 0 0 0 0 0 0 0 0 0 0 0 0 0 0 0 0 0 0 0 0 0 0 0 0 0 0 0 0 0 0 0 0 0 0
0 0 0 0 0 0 0 0 0 0 0 0 0 0 0 0 0 0 0 0 0 0 0 0 0 0 0 0 0 0 0 0 0 0 0 0 0 0 0 0 0 0 0 0 0 0 0 0 0 0 0 0 0 0 0 0 0 0 0 0 0 0 0 0 0 0 0 0 0 0 0 0 0 0 0 0 0 0 0 0 0 0 0 0 0
0 0 0 0 0 0 0 0 0 0 0 0 0 0 0 0 0 0 0 0 0 0 0 0 0 0 0 0 0 0 0 0 0 0 0 0 0 0 0 0 0 0 0 0 0 0 0 0 0 0 0 0 0 0 0 0 0 0 0 0 0 0 0 0 0 0 0 0 0 0 0 0 0 0 0 0 0 0 0 0 0 0 0 0 0
0 0 0 0 0 0 0 0 0 0 0 0 0 0 0 0 0 0 0 0 0 0 0 0 0 0 0 0 0 0 0 0 0 0 0 0 0 0 0 0 0 0 0 0 0 0 0 0 0 0 0 0 0 0 0 0 0 0 0 0 0 0 0 0 0 0 0 0 0 0 0 0 0 0 0 0 0 0 0 0 0 0 0 0 0
0 0 0 0 0 0 0 0 0 0 0 0 0 0 0 0 0 0 0 0 0 0 0 0 0 0 0 0 0 0 0 0 0 0 0 0 0 0 0 0 0 0 0 0 0 0 0 0 0 0 0 0 0 0 0 0 0 0 0 0 0 0 0 0 0 0 0 0 0 0 0 0 0 0 0 0 0 0 0 0 0 0 0 0 0
0 0 0 0 0 0 0 0 0 0 0 0 0 0 0 0 0 0 0 0 0 0 0 0 0 0 0 0 0 0 0 0 0 0 0 0 0 0 0 0 0 0 0 0 0 0 0 0 0 0 0 0 0 0 0 0 0 0 0 0 0 0 0 0 0 0 0 0 0 0 0 0 0 0 0 0 0 0 0 0 0 0 0 0 0
0 0 0 0 0 0 0 0 0 0 0 0 0 0 0 0 0 0 0 0 0 0 0 0 0 0 0 0 0 0 0 0 0 0 0 0 0 0 0 0 0 0 0 0 0 0 0 0 0 0 0 0 0 0 0 0 0 0 0 0 0 0 0 0 0 0 0 0 0 0 0 0 0 0 0 0 0 0 0 0 0 0 0 0 0
0 0 0 0 0 0 0 0 0 0 0 0 0 0 0 0 0 0 0 0 0 0 0 0 0 0 0 0 0 0 0 0 0 0 0 0 0 0 0 0 0 0 0 0 0 0 0 0 0 0 0 0 0 0 0 0 0 0 0 0 0 0 0 0 0 0 0 0 0 0 0 0 0 0 0 0 0 0 0 0 0 0 0 0 0
0 0 0 0 0 0 0 0 0 0 0 0 0 0 0 0 0 0 0 0 0 0 0 0 0 0 0 0 0 0 0 0 0 0 0 0 0 0 0 0 0 0 0 0 0 0 0 0 0 0 0 0 0 0 0 0 0 0 0 0 0 0 0 0 0 0 0 0 0 0 0 0 0 0 0 0 0 0 0 0 0 0 0 0 0
0 0 0 0 0 0 0 0 0 0 0 0 0 0 0 0 0 0 0 0 0 0 0 0 0 0 0 0 0 0 0 0 0 0 0 0 0 0 0 0 0 0 0 0 0 0 0 0 0 0 0 0 0 0 0 0 0 0 0 0 0 0 0 0 0 0 0 0 0 0 0 0 0 0 0 0 0 0 0 0 0 0 0 0 0
0 0 0 0 0 0 0 0 0 0 0 0 0 0 0 0 0 0 0 0 0 0 0 0 0 0 0 0 0 0 0 0 0 0 0 0 0 0 0 0 0 0 0 0 0 0 0 0 0 0 0 0 0 0 0 0 0 0 0 0 0 0 0 0 0 0 0 0 0 0 0 0 0 0 0 0 0 0 0 0 0 0 0 0 0
0 0 0 0 0 0 0 0 0 0 0 0 0 0 0 0 0 0 0 0 0 0 0 0 0 0 0 0 0 0 0 0 0 0 0 0 0 0 0 0 0 0 0 0 0 0 0 0 0 0 0 0 0 0 0 0 0 0 0 0 0 0 0 0 0 0 0 0 0 0 0 0 0 0 0 0 0 0 0 0 0 0 0 0 0
Wind_Speed
11 9 8 8 8 8 8 7 7 6 5 5 4 4 3 3 3 2 2 3 2 3 3 4 4 4 4 4 4 5 4 5 5 6 5 7 8 7 8 9 10 10 9 10 10 10 9 10 10 8 7 10 9 9 10 11 12 12 11 12 12 11 11 11 12 12 5 3 4 4 3 2 3 8 8 6 6 6 6 5 10 10 9 8 7
11 10 9 8 9 8 8 7 7 5 6 5 5 4 3 3 3 2 3 3 3 3 4 4 4 4 4 5 5 5 6 6 6 6 7 7 8 7 8 10 11 12 10 10 10 9 10 11 12 10 8 7 8 11 10 10 10 10 10 11 11 11 11 11 12 11 12 3 4 5 6 10 7 8 10 9 6 6 8 6 5 7 10 6 5
11 10 9 9 9 8 8 7 6 6 6 5 5 5 4 4 3 3 3 3 3 4 4 4 4 4 5 5 6 6 6 6 5 6 7 8 10 10 8 10 10 10 11 12 12 11 11 11 11 11 9 9 8 8 9 11 10 12 12 11 13 13 12 14 12 12 12 10 7 7 7 11 11 10 11 9 8 8 9 8 7 5 5 6 6
11 10 10 9 9 9 8 7 7 7 6 5 5 4 4 3 3 4 4 3 4 3 4 4 4 5 5 6 7 7 8 6 6 7 9 10 10 12 12 11 11 11 12 13 13 12 12 11 11 11 11 10 9 9 8 8 10 10 11 11 12 13 12 11 15 13 11 11 9 8 6 10 9 10 9 10 10 9 8 8 6 7 6 5 6
11 12 11 10 10 9 8 7 7 7 6 5 5 5 4 4 3 4 3 3 4 3 4 4 4 6 7 7 8 8 8 8 9 9 9 8 10 11 12 12 12 13 13 12 13 13 13 13 13 12 12 12 10 9 8 10 10 11 11 11 12 13 11 12 13 13 12 12 9 7 8 8 8 10 12 11 9 8 8 8 8 7 7 5 4
10 10 10 10 10 9 8 7 7 7 6 5 5 4 4 3 3 3 3 4 4 3 3 4 5 7 7 7 7 8 9 9 11 11 11 10 9 9 9 11 13 13 14 14 14 13 13 14 14 13 13 13 11 10 10 11 10 10 12 10 8 8 10 10 9 10 14 13 10 7 9 11 10 6 11 11 12 10 9 8 8 8 9 7 4
10 9 10 10 9 9 8 8 6 6 6 5 5 4 4 4 4 4 3 3 3 3 4 5 5 5 7 7 8 9 10 11 11 10 11 11 10 10 11 12 13 12 13 15 15 14 14 14 14 14 14 13 13 12 11 11 10 10 9 11 11 11 8 9 10 12 12 13 9 10 10 8 10 11 10 10 9 11 13 11 8 7 7 9 9
10 9 9 9 9 9 7 7 6 6 5 4 4 3 3 3 3 2 2 2 3 4 6 6 6 6 6 7 8 8 9 10 12 11 11 11 10 10 11 10 12 12 13 14 14 14 14 14 15 15 14 13 13 12 12 12 10 10 8 8 10 10 10 10 11 10 10 11 10 9 9 10 6 7 9 11 10 8 10 12 14 12 10 8 8
10 9 9 9 8 7 7 6 5 4 4 3 3 3 3 3 2 2 2 3 4 5 5 6 7 8 8 8 9 8 8 9 9 9 10 11 10 10 10 12 12 12 13 14 13 14 15 14 14 15 16 18 21 18 15 13 10 10 7 5 8 10 10 10 10 11 10 9 10 9 9 9 10 11 11 12 14 15 12 10 9 9 9 8 7
9 9 9 8 7 6 6 4 4 4 3 3 3 3 3 3 2 2 3 4 3 4 5 6 6 7 9 9 9 8 8 7 10 13 12 10 11 11 11 11 11 11 11 12 13 14 15 14 14 20 20 20 19 20 21 20 19 14 11 10 9 7 8 10 10 10 11 12 11 7 10 12 12 13 14 14 10 8 11 12 12 11 9 7 6
9 9 9 8 7 6 6 5 5 5 4 4 3 3 3 3 2 2 3 3 4 5 6 6 6 6 8 9 9 9 8 8 12 12 12 14 11 11 12 13 13 14 14 14 14 14 13 14 14 16 17 19 18 21 22 24 22 22 21 17 13 12 9 8 10 10 11 11 10 11 12 14 15 13 13 12 11 14 14 12 11 12 13 14 13
9 9 8 8 8 7 6 5 5 4 4 3 3 3 3 3 2 3 4 5 4 3 4 7 8 7 7 8 9 9 9 11 13 13 14 15 13 12 12 12 12 13 14 14 14 13 14 14 13 12 13 15 15 15 18 22 24 23 22 22 21 19 16 13 10 8 8 11 11 12 11 10 11 13 12 12 12 11 11 12 12 15 13 12 11
9 8 8 8 8 7 6 6 5 4 3 3 2 2 3 3 3 4 4 3 3 3 4 6 7 7 8 10 10 10 10 12 14 14 14 12 11 10 8 11 13 14 14 15 15 15 14 13 13 12 12 17 16 15 14 14 17 23 25 24 24 22 22 19 17 14 10 10 11 11 13 13 12 13 13 15 13 13 12 12 12 13 13 13 12
8 8 8 8 7 6 6 4 3 3 2 2 2 3 3 3 3 3 4 3 2 3 4 7 8 8 9 9 9 10 11 12 15 15 15 16 16 12 9 10 13 14 15 15 14 15 15 15 14 13 13 14 14 15 14 14 15 14 15 18 18 22 23 23 22 19 16 13 12 13 10 12 14 13 14 14 17 17 17 16 14 13 14 15 11
8 7 6 6 6 5 5 4 3 2 2 3 3 3 3 3 4 4 2 1 1 2 4 6 7 8 9 9 9 9 9 13 14 15 15 16 17 16 14 11 11 13 15 15 16 16 16 16 16 16 14 13 14 16 14 13 13 14 15 14 16 17 17 18 17 14 12 12 13 12 10 11 13 13 12 14 18 18 19 20 21 17 10 6 6
8 8 7 5 5 4 3 2 2 2 2 3 3 4 3 4 4 2 1 1 2 2 4 6 8 9 9 10 10 10 10 13 14 14 16 16 17 13 12 11 14 15 15 15 15 16 16 17 17 16 17 16 17 20 20 17 14 14 13 13 14 13 14 15 18 17 15 14 14 14 12 11 16 14 11 14 14 9 6 6 8 9 11 10 9
8 8 7 6 5 3 2 2 2 2 3 3 3 3 3 3 3 2 1 1 2 4 5 6 8 9 10 9 9 10 10 11 13 15 16 17 15 12 10 12 15 17 17 17 16 15 15 16 16 16 16 16 17 18 21 22 17 17 15 14 13 13 13 12 15 19 21 22 21 22 21 18 14 13 16 16 13 14 11 12 13 13 12 11 7
9 10 8 5 3 3 2 2 3 3 3 3 3 2 2 2 3 3 3 4 5 6 6 8 8 9 9 10 10 11 11 12 16 16 17 19 17 14 9 11 15 15 16 16 15 15 16 23 22 18 17 17 16 17 20 19 17 17 16 14 14 14 11 2 3 3 3 14 20 21 22 18 19 22 21 18 19 17 16 16 15 14 13 13 13
7 7 9 7 5 5 1 1 1 1 2 2 1 2 3 2 3 3 3 3 4 6 7 8 9 9 10 11 13 14 12 12 15 16 16 16 15 11 10 10 14 14 15 16 15 15 15 16 22 21 19 18 18 18 19 18 17 16 15 13 14 14 10 5 5 5 5 7 5 8 7 14 13 12 14 22 24 21 17 17 15 16 15 12 10
4 9 9 8 5 1 1 1 2 2 1 1 1 2 3 3 3 3 1 4 6 6 8 9 11 11 10 11 10 11 12 12 13 17 16 18 19 15 10 13 14 14 14 15 14 15 15 15 16 20 22 21 20 21 21 21 19 16 12 12 12 12 6 5 6 7 7 8 8 8 10 10 11 12 9 11 12 12 6 3 11 13 14 14 14
11 8 7 6 3 2 1 1 2 2 2 2 2 2 3 3 3 2 2 4 5 7 8 9 10 11 11 11 11 12 11 13 13 16 17 18 21 19 13 12 14 14 14 14 13 13 13 13 13 16 19 20 21 23 24 25 25 20 16 12 14 9 10 4 4 10 8 6 6 6 7 7 9 11 12 11 11 7 6 11 13 11 11 14 13
8 7 4 4 3 2 2 1 0 1 2 2 3 3 2 3 2 4 5 6 7 9 9 9 10 11 11 12 12 13 13 17 14 15 17 19 20 24 16 12 12 13 14 13 13 13 13 13 13 16 20 20 20 22 25 25 27 20 22 23 19 18 13 7 4 6 8 8 7 6 6 8 9 9 9 9 7 6 8 8 5 2 1 7 14
6 4 4 4 3 2 2 3 3 3 2 3 3 2 2 1 2 2 3 4 6 8 9 10 11 11 12 12 12 13 14 13 16 15 18 20 21 22 22 17 16 14 13 14 14 13 13 14 15 19 19 20 20 22 23 26 24 21 27 24 22 21 14 8 4 6 7 7 8 8 6 7 10 10 10 9 7 5 4 5 6 5 7 7 7
4 5 4 3 3 2 1 0 0 1 1 1 1 2 0 2 2 2 2 3 5 7 8 8 10 11 13 13 12 12 12 13 15 18 17 20 21 21 20 20 20 14 14 14 14 15 15 15 15 20 20 21 23 22 22 23 19 24 24 25 24 17 10 9 7 7 8 8 8 8 8 6 5 8 9 8 7 8 7 6 7 8 9 9 9
3 4 4 4 3 2 2 1 0 1 1 2 3 2 0 1 0 1 1 2 6 7 8 9 10 11 12 13 12 13 12 13 14 16 20 20 21 21 21 22 23 23 18 15 16 16 18 22 22 21 21 21 24 24 22 23 26 24 24 23 18 10 11 10 9 8 9 10 9 8 8 7 6 5 7 8 9 9 9 8 8 9 10 10 9
4 4 4 3 4 1 2 1 2 2 4 2 0 0 0 0 0 1 0 2 5 7 9 9 9 10 11 11 13 16 15 13 14 14 15 16 15 18 20 21 22 23 22 19 21 24 25 26 27 24 21 21 16 10 10 13 19 22 23 19 11 12 10 10 9 10 10 9 9 10 8 7 8 8 8 9 9 8 9 9 10 9 9 11 11
4 1 3 3 3 1 1 2 2 5 0 2 2 0 1 1 2 1 1 2 4 6 8 9 9 9 10 11 13 14 14 15 14 13 13 12 12 13 14 15 19 21 18 16 17 18 22 24 20 20 19 21 18 14 13 14 15 14 11 11 11 11 10 11 11 11 10 10 9 8 8 8 9 10 9 9 9 7 7 10 11 9 9 9 12
4 4 3 2 2 1 1 7 7 3 3 2 2 2 1 2 1 1 1 0 2 5 8 8 8 9 10 11 13 13 14 13 13 13 13 13 13 14 13 13 14 12 13 13 13 14 14 16 20 17 15 13 12 10 11 11 10 9 9 11 10 9 10 11 8 7 8 9 10 10 9 9 10 9 9 8 9 8 7 9 11 10 9 10 11
3 4 3 3 4 1 2 3 3 3 3 3 3 2 1 0 2 3 2 1 1 3 6 7 8 8 9 10 13 15 10 10 13 16 19 20 17 13 12 13 13 12 14 18 15 12 11 11 10 12 11 10 8 7 7 7 8 9 11 10 8 9 9 10 10 10 11 12 12 12 11 10 9 9 9 9 8 9 7 10 10 12 8 8 11
3 4 3 4 4 2 2 2 3 4 4 5 4 4 4 6 7 2 2 7 6 6 6 5 8 8 9 10 10 12 14 15 22 26 25 23 24 24 22 21 19 15 17 23 18 10 8 8 8 9 9 8 8 6 5 5 6 6 6 9 9 9 9 8 9 10 9 11 12 12 12 12 11 11 11 11 9 8 7 10 10 10 12 12 12
5 6 3 4 3 1 1 3 4 3 4 4 5 4 3 4 5 10 10 5 6 8 8 10 12 13 10 11 12 18 20 23 24 24 24 24 24 23 21 19 21 19 17 12 10 8 6 7 7 7 8 8 8 7 6 5 3 7 7 6 6 9 10 10 10 10 10 10 10 11 12 12 12 11 12 12 12 11 9 6 8 9 11 12 12
2 4 5 3 5 3 2 2 2 3 4 4 5 4 6 3 4 6 9 8 9 6 6 8 10 12 14 14 14 13 17 20 22 22 22 23 22 22 19 17 18 19 15 3 3 3 5 6 7 7 7 8 7 7 7 7 6 7 8 8 7 7 10 10 10 12 11 11 11 11 11 11 11 11 11 12 12 11 11 10 9 10 10 8 9
4 3 5 4 4 3 2 2 2 3 2 3 4 5 5 4 2 2 4 6 6 1 4 7 9 12 14 15 18 17 19 20 22 21 21 22 21 20 18 14 13 16 14 6 3 4 2 1 2 4 7 7 7 7 7 7 8 7 8 9 9 7 7 10 12 11 11 12 13 12 12 11 11 11 10 11 13 13 11 10 10 11 10 10 9
6 5 3 1 2 3 2 4 5 5 4 4 4 4 4 3 3 3 2 2 2 1 3 6 9 12 13 15 17 20 21 21 21 20 20 20 20 19 16 10 11 13 11 7 7 5 5 5 4 3 1 2 3 5 6 6 6 7 7 7 8 8 8 8 9 11 10 11 11 11 12 12 12 13 11 10 9 10 12 11 11 12 11 11 11
6 4 7 4 1 1 4 5 6 6 5 5 5 5 5 4 3 4 3 1 3 6 7 7 9 11 12 12 16 20 21 20 20 19 19 20 19 19 13 8 9 10 9 8 7 7 6 5 5 4 4 4 3 3 3 3 5 6 8 9 9 10 10 9 8 9 11 11 11 11 12 13 12 11 13 13 12 11 11 12 11 11 11 11 10
1 3 3 2 2 7 6 7 6 5 5 5 4 6 3 3 3 5 3 1 1 4 4 6 7 9 13 13 16 19 21 20 19 19 18 19 18 16 9 8 7 8 8 8 6 6 6 6 5 5 5 5 5 5 4 4 4 5 6 8 10 10 11 11 10 10 10 11 11 12 12 10 11 11 10 10 11 12 11 11 11 10 10 10 10
1 3 2 5 4 4 4 4 4 5 5 3 3 4 6 4 4 5 3 2 1 2 3 5 7 9 9 7 13 16 18 17 16 16 17 17 17 10 7 8 8 7 8 8 8 7 7 6 4 5 5 5 5 5 5 6 6 6 6 6 7 8 8 9 10 10 11 11 10 11 11 11 11 10 11 12 10 10 10 10 10 10 10 12 13
1 2 2 3 3 4 3 3 5 7 6 2 3 4 3 6 6 4 3 4 2 2 3 3 6 8 11 11 14 12 13 13 13 10 10 11 10 9 9 8 8 8 7 7 7 7 6 6 6 5 4 5 6 6 6 6 6 7 7 7 7 7 11 11 11 10 10 10 11 11 10 10 9 9 9 10 11 11 10 9 9 10 11 14 12
8 11 11 7 2 2 3 3 5 6 3 3 2 3 3 4 5 5 2 5 4 2 1 2 4 6 8 9 10 12 12 10 11 12 11 10 10 10 9 9 8 8 7 7 7 7 6 5 6 6 6 6 6 6 6 6 6 7 7 8 8 9 10 9 10 9 10 10 10 10 10 10 9 8 8 9 10 10 9 8 8 8 10 10 10
2 3 5 1 1 2 3 4 4 6 7 9 4 5 5 6 5 4 2 3 4 2 2 2 2 3 5 7 9 10 11 12 11 11 10 10 10 10 9 9 9 8 7 7 7 6 6 6 6 6 7 6 6 7 6 7 7 7 7 8 8 9 9 9 9 10 10 10 10 10 9 8 9 9 9 8 9 9 10 9 7 6 8 10 11
5 5 2 1 1 1 1 3 5 6 6 3 4 3 3 5 3 5 2 2 3 2 2 3 1 2 4 7 12 13 9 10 10 10 10 10 9 9 9 9 9 8 8 8 7 6 6 7 7 7 7 7 7 7 7 8 8 7 8 8 8 9 9 9 9 9 10 10 10 10 9 9 9 10 10 8 8 9 8 8 8 8 9 10 11
3 3 4 3 1 2 2 4 1 3 6 2 1 1 4 2 1 3 3 2 1 1 1 2 3 3 4 9 9 12 9 8 8 9 9 9 8 8 8 8 8 8 8 7 7 7 7 7 7 7 8 8 8 8 8 8 8 8 9 9 9 9 10 9 8 9 10 11 10 10 10 10 9 9 10 10 10 9 9 8 8 9 9 9 9
1 1 3 3 2 4 3 4 0 2 4 5 0 3 5 2 1 2 3 3 1 1 2 3 3 3 3 4 8 9 7 7 7 8 8 9 8 8 8 9 9 9 8 8 8 8 8 7 7 7 8 8 8 8 8 8 8 9 9 9 9 9 9 9 9 9 9 11 11 11 12 12 10 9 9 8 8 8 8 8 8 9 8 9 9
1 1 1 1 2 3 2 1 1 2 4 6 7 6 5 4 2 2 4 3 1 1 2 3 3 2 2 3 4 5 6 6 7 7 8 8 9 9 8 8 8 9 9 8 8 8 8 9 9 9 9 9 9 10 9 8 8 9 9 10 9 10 9 9 9 9 10 11 12 12 12 11 11 9 9 8 8 10 9 8 8 8 8 7 8
3 2 1 2 2 1 0 1 2 3 4 3 3 3 3 3 3 2 3 5 2 2 3 3 3 3 3 3 4 4 5 5 6 7 8 8 8 8 8 8 9 9 9 9 8 8 8 9 9 10 10 10 10 10 10 9 9 9 8 9 10 10 9 9 8 8 9 11 11 12 11 11 10 9 9 8 8 9 8 7 7 8 8 8 8
3 3 3 3 2 1 1 1 1 3 0 4 4 3 4 3 3 3 4 5 5 2 4 3 3 3 3 3 4 3 3 4 5 6 7 6 6 7 7 7 8 8 8 8 8 9 8 9 9 10 11 10 11 10 11 11 11 11 10 10 10 10 9 9 9 10 10 10 11 11 10 10 10 9 9 8 8 8 7 7 6 7 7 7 7
6 5 5 4 5 3 2 0 1 3 2 2 1 3 3 4 4 4 5 7 7 6 2 3 4 5 4 3 3 3 3 4 4 5 4 5 6 6 7 7 7 7 7 8 8 8 9 9 9 10 11 10 11 12 10 10 10 10 10 10 10 10 9 9 10 10 10 10 10 10 10 10 10 9 10 9 7 7 8 7 7 8 7 7 7
6 5 6 7 7 7 6 5 6 4 6 9 7 8 8 8 9 8 8 8 8 9 7 3 5 4 4 3 2 3 4 4 3 4 4 4 5 6 6 7 7 7 7 7 7 8 8 8 9 9 10 11 11 10 10 10 10 10 10 10 10 10 12 12 10 10 9 9 9 9 10 10 9 8 8 8 7 7 8 7 7 6 6 7 7
6 7 7 7 7 7 7 8 7 9 9 7 8 9 9 9 8 9 9 10 10 9 10 7 6 6 4 3 3 3 4 3 3 3 4 5 4 4 5 6 6 7 7 7 7 8 8 8 9 8 9 9 9 9 10 10 9 9 10 9 13 19 18 16 11 10 11 10 9 10 10 9 9 9 8 8 7 7 7 6 6 6 6 6 7
7 7 7 7 7 7 8 7 8 8 7 8 8 8 9 9 9 9 10 11 10 11 10 10 9 6 5 5 4 4 3 3 3 3 4 4 5 5 4 5 6 6 6 6 6 6 7 7 8 8 8 8 9 9 9 9 9 9 8 11 16 16 16 15 15 15 11 8 9 8 8 8 8 7 6 6 6 7 7 6 6 6 6 7 7
7 8 8 8 8 8 8 8 8 8 8 8 8 8 8 9 9 9 10 10 10 10 10 11 11 11 9 9 8 6 5 4 4 4 3 3 3 5 5 5 5 5 5 6 6 6 6 6 6 7 7 7 7 7 7 7 7 7 10 12 13 12 12 10 9 11 12 8 7 7 6 7 7 7 6 6 6 7 7 7 6 6 6 6 5
Wind_Direction
166 170 168 171 171 177 176 177 183 178 177 179 185 196 198 203 208 204 225 223 239 251 257 262 275 278 276 276 278 279 278 277 281 282 282 288 288 285 284 283 281 281 283 287 288 291 290 285 277 261 232 220 215 215 212 210 215 223 224 226 223 219 221 226 237 248 253 144 143 176 143 229 201 126 132 136 107 81 70 115 140 153 153 143 122
169 167 169 172 174 176 175 179 180 180 178 175 191 191 201 204 200 222 223 246 245 257 259 265 265 258 265 268 267 271 269 274 276 277 283 285 283 286 287 279 279 279 286 283 286 290 289 290 292 286 275 255 225 223 216 215 214 214 223 226 229 227 215 224 229 235 240 198 201 199 168 175 181 144 144 147 120 115 118 122 144 142 155 131 121
168 168 167 173 173 174 173 177 176 180 176 183 189 201 200 201 206 212 224 230 233 237 250 259 260 273 272 263 259 265 271 270 270 277 278 280 281 279 277 274 274 277 278 278 279 281 284 285 287 288 281 273 262 233 221 221 220 224 220 217 224 223 216 216 220 225 229 227 200 196 174 177 178 159 155 148 133 134 135 144 141 125 111 132 123
168 168 168 171 168 174 177 175 178 180 186 184 193 197 201 206 206 220 231 239 248 246 261 270 270 267 265 268 269 264 264 271 281 283 279 278 277 275 273 272 271 268 267 271 273 275 276 280 278 281 284 276 270 265 243 223 222 227 227 221 222 227 224 218 217 218 213 222 205 193 174 163 177 152 151 144 140 136 139 140 130 130 128 121 123
168 173 172 170 170 175 177 180 179 180 183 187 196 197 206 207 210 231 238 243 247 258 263 257 265 263 264 275 286 295 297 293 284 279 276 271 270 272 271 269 269 269 268 266 267 269 271 271 275 275 279 280 273 268 265 247 229 226 230 224 218 220 219 214 217 218 215 215 205 187 167 174 171 166 151 145 140 134 141 147 144 133 128 122 112
167 171 169 170 169 175 177 180 183 181 185 192 197 198 203 213 221 224 238 246 252 259 267 277 277 284 293 299 299 297 296 290 283 279 276 276 274 272 271 271 269 267 266 266 264 263 266 268 268 268 266 266 267 267 267 264 247 225 227 230 235 232 224 219 224 230 219 214 193 173 176 171 177 156 152 151 150 145 143 151 144 148 139 127 117
167 170 163 165 169 177 177 182 178 183 185 187 188 196 205 209 219 228 231 249 269 276 276 281 287 298 297 293 291 288 285 283 280 277 276 273 270 267 265 265 265 266 264 264 263 262 261 262 265 265 265 264 264 261 261 265 263 250 226 222 220 222 229 238 227 220 225 217 197 177 176 189 174 159 162 152 147 156 158 153 152 152 147 150 148
165 167 159 162 169 172 181 175 178 186 175 180 190 198 210 216 226 240 243 272 277 279 282 280 277 268 272 278 277 276 273 275 275 272 270 270 267 266 266 260 260 261 263 264 263 261 260 261 260 262 264 266 267 265 258 257 263 264 247 227 223 218 209 212 228 236 220 224 211 188 182 176 179 150 145 149 154 169 177 164 162 164 167 164 162
163 164 161 163 165 168 169 173 174 171 172 184 189 200 208 221 226 233 260 269 257 263 280 295 305 304 299 292 290 283 279 276 276 270 268 266 264 264 263 264 262 260 258 260 260 260 259 255 255 255 258 263 267 272 277 281 270 265 267 255 239 228 221 209 211 216 225 218 222 207 185 179 178 158 163 175 180 181 164 164 164 164 151 147 159
164 166 164 158 155 164 161 157 163 166 171 188 201 207 211 211 207 241 256 259 275 285 280 282 285 287 291 289 284 282 277 277 272 270 265 267 273 272 272 273 275 277 277 275 266 258 256 258 257 254 254 255 257 265 272 273 272 265 259 261 267 264 243 233 222 213 211 217 224 202 193 189 180 178 174 184 175 141 155 172 161 158 142 142 145
167 162 162 157 156 166 165 163 167 177 189 194 201 209 221 210 222 249 261 269 274 276 281 287 287 290 289 290 289 285 281 273 271 272 272 263 259 259 256 258 256 259 260 263 269 275 275 265 258 257 257 259 259 257 262 268 265 268 266 252 243 245 260 246 244 234 230 222 201 193 200 199 187 178 178 173 173 171 173 169 158 158 168 163 177
165 160 159 156 160 170 166 168 171 186 188 201 204 211 207 222 237 250 250 255 259 283 308 303 295 293 293 295 295 292 292 294 295 289 277 273 261 258 256 253 254 255 255 257 261 263 264 267 269 269 260 257 258 253 248 250 258 258 258 262 256 243 227 235 245 243 233 238 224 204 188 203 195 182 176 174 176 172 173 170 168 173 174 185 176
163 159 161 160 162 163 165 172 178 179 185 200 208 209 228 240 248 249 274 300 296 287 298 303 300 302 296 292 289 288 287 288 289 292 297 294 280 265 267 267 265 261 256 255 256 257 261 264 265 262 267 267 260 256 258 259 248 245 249 252 255 254 253 237 227 235 235 230 238 225 200 188 194 202 186 179 169 170 167 177 180 184 188 187 188
165 156 159 156 158 160 160 164 172 178 181 197 211 233 239 250 256 266 272 274 317 336 315 298 297 291 288 285 285 286 281 282 282 286 287 287 286 277 261 259 265 267 267 264 260 258 256 257 260 261 259 266 269 266 256 250 258 255 239 236 241 248 248 249 239 228 226 231 230 238 223 197 195 192 192 178 173 176 178 185 180 182 187 198 184
161 150 154 154 147 146 157 166 173 183 195 205 219 232 247 251 255 260 267 51 21 300 298 296 289 285 281 280 284 284 284 286 283 280 278 277 275 274 273 263 260 262 262 260 260 261 261 259 258 258 260 260 260 268 274 265 252 250 246 232 230 233 238 240 240 230 220 224 229 230 227 201 200 196 190 186 185 185 183 181 183 182 163 101 95
159 144 143 134 133 140 161 155 164 194 213 227 231 238 232 243 266 276 335 4 304 284 282 283 285 289 291 292 288 282 278 275 274 277 277 276 273 273 267 260 264 264 260 256 253 254 254 254 256 256 255 255 258 266 273 279 287 290 285 269 243 232 229 229 231 230 220 216 218 222 218 204 198 195 190 183 182 153 112 86 107 132 147 154 153
156 137 143 140 145 150 147 169 199 224 236 242 250 250 250 274 303 313 301 301 306 305 304 299 296 290 287 286 289 288 287 287 288 288 286 282 279 275 262 264 267 269 267 267 264 260 254 254 254 255 253 252 251 258 268 276 279 281 280 278 279 253 237 233 229 227 221 214 207 204 208 200 178 173 191 182 163 167 159 153 163 160 157 158 153
147 161 157 142 136 116 146 215 225 223 216 243 264 274 309 328 322 348 19 359 330 314 302 296 293 296 299 299 296 297 296 292 288 282 276 275 268 270 256 260 263 265 268 266 263 261 256 253 254 253 252 252 249 250 257 265 270 271 273 276 275 276 258 158 74 23 271 224 210 195 190 175 169 179 179 173 163 158 163 176 175 167 173 168 168
171 165 141 161 147 116 174 218 283 316 317 312 332 317 312 327 321 345 14 343 312 311 308 306 304 300 298 297 298 294 292 291 287 283 280 278 276 270 257 251 260 256 263 264 260 261 258 255 249 249 249 253 251 250 253 259 263 265 274 273 267 270 267 160 147 128 116 111 123 149 159 165 162 170 182 175 172 176 180 183 169 176 171 167 147
158 89 85 82 90 122 165 197 211 226 285 317 338 341 340 318 299 76 21 324 323 319 312 305 302 302 302 301 300 299 296 294 291 290 295 295 290 283 261 260 257 258 257 258 257 254 254 254 250 243 243 245 247 249 252 255 259 262 267 272 273 264 273 178 177 156 152 152 159 166 162 158 156 160 167 187 188 180 175 174 188 180 164 158 162
92 103 107 112 118 175 134 62 44 12 352 346 335 311 296 299 314 33 0 329 317 309 301 300 301 301 302 301 300 296 291 291 294 296 296 293 289 285 276 254 256 257 258 254 251 253 251 250 249 244 238 235 235 239 242 245 251 257 254 245 251 298 316 230 171 145 130 129 133 139 138 143 151 159 165 170 172 173 169 180 185 191 174 162 166
105 106 120 116 112 82 75 75 72 247 244 239 250 250 242 266 18 14 350 334 320 316 318 318 312 305 303 304 300 297 296 296 298 296 290 286 283 281 278 264 255 257 254 249 249 247 248 250 251 246 239 234 231 230 233 237 240 243 248 247 250 263 282 284 177 141 134 135 135 133 141 147 149 154 156 155 147 147 158 167 164 168 192 177 170
113 116 107 106 103 136 161 194 209 198 211 229 241 252 262 28 71 35 345 330 327 327 323 317 313 309 306 301 300 300 298 296 295 295 293 287 284 280 273 268 260 257 256 255 250 251 249 249 249 244 237 235 233 231 230 232 234 236 242 245 242 244 248 245 205 157 148 145 141 142 156 159 154 158 157 150 138 125 98 99 99 92 84 69 50
124 120 112 135 163 169 166 255 77 252 263 272 285 270 251 71 25 5 356 340 327 313 305 307 307 306 303 299 298 297 298 299 297 293 290 286 284 282 277 271 264 256 254 255 255 254 252 248 246 241 235 233 236 236 233 232 232 235 237 238 237 229 222 228 199 173 153 148 148 149 158 163 146 151 152 140 127 112 100 85 85 93 89 81 87
121 125 166 172 133 166 112 59 126 15 4 275 252 228 177 110 280 44 30 326 308 300 297 302 305 303 299 296 298 300 302 301 297 292 286 283 281 280 276 272 270 266 261 256 251 252 250 250 248 242 236 233 235 235 234 234 233 232 232 233 227 209 213 201 194 162 160 160 161 157 151 152 139 117 97 101 104 99 94 84 80 81 85 86 85
148 191 156 112 118 36 70 92 31 290 237 214 122 5 167 140 79 95 101 291 300 305 310 309 302 300 300 302 303 305 305 302 297 295 291 286 284 280 278 277 274 271 266 260 254 249 247 244 243 242 238 238 243 249 249 245 238 232 230 224 205 209 192 186 177 174 163 159 152 153 144 123 115 116 115 113 109 116 119 113 109 97 100 105 94
144 162 116 141 125 147 156 101 252 232 342 22 360 271 112 94 76 64 58 314 312 305 301 304 302 301 302 302 302 303 303 303 301 297 297 295 293 290 288 283 273 268 264 260 254 250 247 242 237 233 232 238 245 262 271 262 248 228 218 204 202 192 179 175 181 171 158 142 135 124 124 117 113 116 126 121 112 112 117 124 115 115 112 111 107
170 153 124 130 111 67 24 186 211 16 16 334 9 341 99 125 158 144 126 216 289 300 310 306 303 302 301 300 299 298 298 298 298 299 302 298 293 290 282 276 275 262 261 257 251 246 241 233 228 226 231 240 251 260 262 254 224 202 191 193 187 168 159 162 154 144 131 134 126 124 119 128 128 127 121 116 116 119 126 117 121 119 121 121 108
119 117 175 139 93 21 16 335 12 23 346 357 24 10 87 118 97 105 121 133 205 293 308 296 291 289 295 299 298 296 290 291 297 302 298 297 296 293 288 286 283 273 257 254 256 251 234 223 207 213 215 224 229 229 245 212 193 187 178 168 150 140 140 141 143 139 139 136 141 139 137 129 125 120 121 117 122 125 127 117 122 124 117 107 114
155 167 188 147 93 39 346 318 14 6 5 4 8 357 122 69 118 85 136 193 210 232 229 272 282 292 295 295 296 296 298 298 300 301 302 303 304 299 293 293 293 281 268 259 256 239 210 200 196 195 197 194 197 195 212 225 158 137 144 145 143 142 140 134 132 137 140 141 139 137 137 136 133 138 134 131 125 122 128 130 133 131 126 127 123
192 192 161 96 100 136 256 346 32 9 354 15 5 0 38 90 108 160 183 170 181 209 241 252 268 271 280 301 302 297 295 298 302 304 307 309 307 304 302 309 313 308 296 269 232 199 186 175 177 175 185 184 181 185 175 182 161 130 128 122 121 135 136 135 137 136 138 135 136 134 138 139 142 144 142 140 135 131 127 119 119 118 120 126 127
190 77 93 113 178 225 41 20 18 360 8 23 2 16 342 351 160 227 222 169 191 212 248 275 286 289 294 302 310 310 309 309 310 312 314 313 311 309 308 314 322 326 310 237 184 180 174 172 167 176 173 179 181 168 170 166 162 142 128 119 123 131 137 138 144 140 138 138 136 137 137 139 140 143 141 139 134 135 137 138 132 123 116 118 132
66 73 55 27 352 342 33 10 354 359 26 21 15 356 335 329 3 18 180 171 108 72 290 293 300 307 312 314 314 312 314 318 319 319 320 317 316 318 315 319 336 348 352 13 39 49 41 41 188 172 175 177 171 168 165 166 159 152 142 137 137 142 141 143 143 140 144 144 141 141 143 141 141 138 141 141 141 141 143 136 130 123 132 138 149
73 75 57 344 341 340 3 24 358 336 38 45 4 344 314 342 351 322 320 10 352 314 284 294 313 322 322 323 322 324 326 325 324 325 329 329 327 328 325 316 345 6 18 16 13 36 54 57 46 40 42 93 137 151 154 155 152 141 131 124 125 121 124 134 135 137 135 137 139 139 140 142 144 143 142 142 138 138 140 140 138 142 146 153 150
121 131 179 216 46 17 14 13 360 22 36 8 353 328 310 360 359 344 325 44 340 334 333 339 335 335 329 328 329 331 330 329 329 332 337 343 340 336 329 343 3 5 15 19 22 22 32 47 59 54 58 66 69 96 116 120 129 135 136 133 131 133 134 136 135 136 136 135 135 140 143 143 147 147 146 145 147 146 144 141 145 146 150 152 151
151 167 182 223 317 29 18 10 348 26 354 348 328 280 301 1 10 337 313 71 353 325 328 338 336 330 330 329 335 335 334 333 334 336 341 346 345 343 357 354 1 8 15 16 20 27 38 33 38 49 55 59 66 77 88 92 87 98 116 132 136 140 140 137 139 140 137 136 136 136 136 137 142 144 141 137 139 140 139 141 142 148 151 149 138
30 347 42 64 42 29 19 343 345 341 325 283 271 339 345 357 3 328 329 24 303 310 325 332 340 344 343 338 341 339 334 332 339 340 344 345 347 349 359 356 4 5 18 18 15 20 34 29 42 65 69 66 63 73 83 89 90 99 106 112 125 129 133 136 137 139 136 133 132 135 137 140 143 147 145 140 140 137 134 135 141 149 149 133 123
193 220 117 63 39 43 356 355 325 324 312 327 28 5 358 8 342 321 335 340 316 329 335 340 351 353 350 345 344 346 335 333 336 345 347 352 355 359 1 3 7 16 13 19 15 22 21 20 24 39 48 65 78 79 86 95 102 106 106 107 107 107 113 114 117 118 119 124 129 131 131 132 133 132 135 135 136 137 135 138 139 140 136 126 117
60 64 69 77 77 30 347 346 319 319 330 2 6 14 31 353 314 309 3 3 331 336 351 322 343 0 1 346 347 343 339 352 359 1 359 360 359 359 1 6 6 11 14 12 14 23 24 24 37 49 56 66 71 75 78 88 92 100 104 107 110 114 116 118 120 121 121 125 124 126 127 126 124 122 123 126 127 126 125 127 131 136 132 117 107
89 105 127 162 7 52 17 324 347 356 352 329 33 28 1 328 311 318 358 12 328 333 348 347 357 8 11 6 359 351 355 358 357 356 358 1 3 3 5 6 7 10 13 14 17 24 31 40 44 55 58 60 66 72 75 84 86 94 101 105 110 109 112 117 119 120 121 121 123 123 118 115 113 116 115 114 120 119 120 122 119 111 100 101 102
2 354 11 105 143 334 3 52 20 352 320 324 42 11 338 313 339 345 339 333 325 355 12 11 84 70 44 28 15 7 356 353 353 357 359 3 5 7 8 9 6 9 11 16 16 22 35 42 50 56 60 62 66 70 77 82 86 87 92 95 96 100 102 105 108 110 110 110 111 110 108 103 107 112 110 104 90 92 89 92 95 99 100 100 106
13 359 321 311 290 290 307 91 5 305 304 314 25 319 287 289 1 312 297 294 322 359 35 21 29 98 66 44 33 14 8 358 358 359 1 4 10 13 13 14 14 17 18 14 21 33 34 40 41 49 59 64 70 76 80 82 85 88 91 94 96 98 99 97 95 98 104 106 105 105 102 96 92 91 93 93 89 87 95 103 107 104 103 107 111
25 18 339 345 352 11 50 88 39 311 298 295 298 300 287 253 221 303 300 296 328 65 53 51 32 74 95 63 52 34 13 3 3 7 6 8 11 16 21 19 19 21 25 28 28 35 40 37 37 34 47 60 63 68 73 80 87 89 90 91 93 92 93 94 95 98 102 104 101 100 102 100 95 95 93 88 92 96 100 102 100 103 107 111 113
297 19 29 9 45 64 55 68 298 270 283 289 289 263 264 311 335 358 336 339 72 104 77 91 88 65 80 86 65 49 24 10 10 13 14 12 13 13 10 7 17 23 27 31 33 37 47 52 53 54 53 56 59 62 64 66 76 83 87 87 86 86 87 89 92 98 103 107 107 108 104 104 106 106 101 99 103 103 99 100 102 103 107 106 107
36 58 33 55 72 116 143 205 267 281 279 290 344 359 344 350 360 343 335 334 355 91 113 107 93 87 73 70 80 68 44 25 19 19 21 16 15 14 12 18 22 26 28 30 32 41 51 57 58 60 61 58 58 60 62 62 63 69 73 80 86 85 82 83 86 89 90 98 104 103 105 106 105 103 102 101 100 102 101 101 101 102 98 100 102
16 20 23 17 36 105 98 356 289 281 359 42 329 349 333 353 360 359 349 351 353 45 101 98 101 96 88 77 89 99 94 64 42 32 27 24 21 20 18 21 23 26 27 29 36 43 48 57 62 64 63 64 64 65 65 66 68 68 69 72 77 81 81 75 71 77 80 83 88 91 95 96 95 96 94 94 88 85 83 80 82 87 92 91 90
25 26 18 10 6 7 21 77 26 4 355 91 308 321 327 359 5 9 6 1 357 359 60 108 90 91 91 71 81 104 105 90 73 60 51 36 30 28 28 26 29 29 29 29 33 41 49 55 63 65 66 67 68 68 67 66 67 66 66 69 70 70 70 74 72 73 76 81 87 94 92 93 91 90 85 82 79 78 79 85 96 97 92 92 96
33 25 26 13 11 13 9 12 3 12 17 7 1 20 18 13 10 11 14 2 2 0 358 39 97 98 99 92 82 88 106 108 99 84 80 71 50 41 39 37 34 30 33 34 35 41 46 53 59 65 66 67 69 69 69 69 69 68 68 66 65 67 70 75 78 76 78 80 79 81 84 86 85 84 83 84 87 92 96 98 94 88 93 96 89
27 35 34 26 18 14 5 8 21 31 18 16 19 20 16 14 11 13 5 3 2 360 3 8 56 68 75 94 105 91 85 96 96 83 79 99 92 65 56 51 45 38 39 38 37 43 50 55 59 62 66 69 69 72 72 71 69 67 66 66 65 64 64 64 67 65 65 71 75 76 79 79 81 80 80 84 87 90 92 89 91 96 91 84 84
30 31 35 28 30 24 19 22 25 27 28 22 23 26 19 15 14 11 7 2 0 2 1 5 12 28 59 53 55 79 90 86 82 85 73 71 103 114 87 68 62 55 49 46 39 37 47 54 58 63 66 69 69 71 72 72 72 73 72 70 69 66 65 62 58 53 54 61 68 79 83 88 84 85 86 90 91 91 91 91 91 86 86 86 87
27 28 31 30 34 29 28 26 27 28 27 26 24 26 26 23 14 13 7 4 2 359 359 4 13 9 18 26 24 33 56 72 76 78 71 61 71 115 124 111 97 82 76 68 60 49 45 46 48 55 58 61 63 63 64 70 71 78 80 77 78 79 76 73 70 67 67 67 77 86 99 102 108 109 103 97 91 89 96 97 92 89 88 88 89